sat.trackr.live / text

‹ back to catalog

ESEO

NORAD 43792 · 2018-099AL

PAYLOAD ACTIVE UNKNOWN

§ Identity

Operator
Country
ESA
Launch date
2018-12-03
Launch site
AFWTR
Launch vehicle
Mass (kg)
RCS (m²)

External: N2YO · Heavens-Above · Gunter

§ Orbital elements

Epoch: 2026-09-15T21:46:09.987456Z

Period
95.71 min
Inclination
97.3907°
Eccentricity
0.0012573
Mean motion
15.04470819 rev/d
Perigee alt
544.4 km
Apogee alt
561.8 km
Semi-major
6,931.3 km
B*
1.1567e-4
RAAN
292.3905°
Arg perigee
30.2399°
Mean anomaly
329.9551°
Rev number
42,544

§ Raw data

ESEO1 43792U 18099AL  26258.90706004  .00001562  00000+0  11567-3 0  99972 43792  97.3907 292.3905 0012573  30.2399 329.9551 15.04470819425448

JSON: /api/v1/satellites/43792 · /tle

For live sub-satellite position, see the globe view (requires WebGL).

§ Visibility from observer

Set your observer location to see the next 7 days of passes ≥ 10°. The values pass through the URL so the page stays shareable.

No JS? Fill the form by hand. The geolocation button needs JavaScript.

§ Radio — SatNOGS DB

ModeDescriptionDownlinkUplink
BPSK BPSK1k2 AX25 FUNcube-4 Beacon 145.895 MHz
BPSK BPSK4k8 AX25 FUNcube-4 Beacon 145.895 MHz
FM FM 145.895 MHz 1.264 GHz
GMSK GMSK4k8 AX25 ESEO TLM 437.000 MHz
GMSK GMSK9k6 AX25 ESEO TLM 437.000 MHz

5 transmitters · refreshed weekly from db.satnogs.org